Torna al catalogo

CZ-3C DEB

LostGTO
NORAD 40820·DEBRIS·🇨🇳 China

Lanciato Oct 31, 2010 da Xichang Satellite Launch Center

Loading…

TLE

ObsoletoSource: Space-Track

Epoca: Oct 12, 2015, 12:01 UTC

1 40820U 10057AM  15285.50085152 +.00000308 +00000-0 +38536-2 0  9992
2 40820 020.4782 000.0137 7218631 265.1947 017.1349 02.21817904006131

Traccia CZ-3C DEB in tempo reale con AllMySat

Download on the App Store